Dodge City, KS

12:57 AM CDT on October 21, 2019 (GMT -0500)
Dodge City Regional

Weather History for KDDC - September, 2019

Change the Weather History Date:

Sunday, September 22, 2019

  Actual Average Record
Temperature  
Mean Temperature 68 °F -  
Max Temperature 80 °F 77 °F 97 °F (2017)
Min Temperature 57 °F 51 °F 29 °F (1995)
Cooling Degree Days 4    
Growing Degree Days 18 (Base 50)    
Moisture  
Dew Point 53 °F    
Average Humidity 61    
Maximum Humidity 87    
Minimum Humidity 22    
Precipitation  
Precipitation 0.00 in - - ()
Sea Level Pressure  
Sea Level Pressure 29.92 in    
Wind  
Wind Speed 14 mph (NE)    
Max Wind Speed 26 mph    
Max Gust Speed 37 mph    
Visibility 10 miles    
Events      
Averages and records for this station are not official NWS values.
T = Trace of Precipitation, MM = Missing Value Source: NWS Daily Summary

Daily Weather History Graph

Daily Weather History Graph

Search for Another Location

Airport or City:

Astronomy

Sep. 22, 2019 Rise Set
Actual Time 7:27 AM CDT 7:37 PM CDT
Civil Twilight 7:01 AM CDT 8:03 PM CDT
Nautical Twilight 6:30 AM CDT 8:33 PM CDT
Astronomical Twilight 5:59 AM CDT 9:04 PM CDT
Moon 12:24 AM CDT (9/22) 3:27 PM CDT (9/22)
Length of Visible Light 13h 01m
Length of Day
12h 09m
Last Quarter, 44% of the Moon is Illuminated
Sep 22
Last Quarter
Sep 28
New
Oct 5
First Quarter
Oct 13
Full
Oct 21
Last Quarter

Hourly Weather History & Observations

Time (CDT) Temp. Dew Point Humidity Pressure Visibility Wind Dir Wind Speed Gust Speed Precip Events Conditions
12:52 AM 73.9 °F 64.0 °F 71% 29.79 in 10.0 mi South 15.0 mph - N/A   Clear
1:52 AM 72.0 °F 63.0 °F 73% 29.79 in 10.0 mi SSW 15.0 mph 23.0 mph N/A   Clear
2:52 AM 71.1 °F 63.0 °F 75% 29.79 in 10.0 mi South 15.0 mph - N/A   Clear
3:52 AM 70.0 °F 63.0 °F 78% 29.77 in 10.0 mi South 12.7 mph - N/A   Clear
4:52 AM 69.1 °F 63.0 °F 81% 29.78 in 10.0 mi SSW 11.5 mph - N/A   Partly Cloudy
5:52 AM 66.9 °F 63.0 °F 87% 29.80 in 10.0 mi SW 6.9 mph - N/A   Partly Cloudy
6:23 AM 62.1 °F 57.0 °F 84% 29.92 in 10.0 mi North 19.6 mph 28.8 mph N/A   Overcast
6:34 AM 61.0 °F 57.0 °F 87% 29.93 in 10.0 mi North 15.0 mph 24.2 mph N/A   Overcast
6:52 AM 60.1 °F 55.0 °F 83% 29.87 in 10.0 mi North 13.8 mph - N/A   Overcast
7:02 AM 59.0 °F 54.0 °F 83% 29.95 in 10.0 mi North 17.3 mph 27.6 mph N/A   Overcast
7:42 AM 59.0 °F 53.1 °F 81% 29.97 in 10.0 mi North 19.6 mph 32.2 mph N/A   Overcast
7:52 AM 59.0 °F 53.1 °F 81% 29.91 in 10.0 mi North 19.6 mph 31.1 mph N/A   Overcast
8:16 AM 59.0 °F 52.0 °F 78% 29.98 in 10.0 mi NNE 20.7 mph 33.4 mph N/A   Overcast
8:52 AM 60.1 °F 51.1 °F 72% 29.92 in 10.0 mi North 19.6 mph 32.2 mph N/A   Overcast
9:52 AM 64.0 °F 48.9 °F 58% 29.90 in 10.0 mi NE 26.5 mph 36.8 mph N/A   Clear
10:52 AM 69.1 °F 50.0 °F 51% 29.94 in 10.0 mi NE 17.3 mph 26.5 mph N/A   Clear
11:52 AM 70.0 °F 48.9 °F 47% 29.95 in 10.0 mi NNE 15.0 mph 25.3 mph N/A   Clear
12:52 PM 73.0 °F 50.0 °F 44% 29.95 in 10.0 mi NNE 11.5 mph 19.6 mph N/A   Clear
1:52 PM 75.9 °F 50.0 °F 40% 29.95 in 10.0 mi North 10.4 mph 18.4 mph N/A   Clear
2:52 PM 78.1 °F 48.0 °F 35% 29.93 in 10.0 mi North 12.7 mph 20.7 mph N/A   Clear
3:52 PM 78.1 °F 46.0 °F 32% 29.93 in 10.0 mi North 10.4 mph 19.6 mph N/A   Clear
4:52 PM 79.0 °F 45.0 °F 30% 29.93 in 10.0 mi ENE 9.2 mph - N/A   Clear
5:52 PM 78.1 °F 45.0 °F 31% 29.94 in 10.0 mi East 6.9 mph - N/A   Clear
6:52 PM 75.9 °F 46.9 °F 36% 29.97 in 10.0 mi ENE 3.5 mph - N/A   Clear
7:52 PM 64.9 °F 48.0 °F 54% 30.00 in 10.0 mi ENE 6.9 mph - N/A   Clear
8:52 PM 62.1 °F 46.9 °F 58% 30.02 in 10.0 mi East 6.9 mph - N/A   Clear
9:52 PM 57.9 °F 48.0 °F 70% 30.04 in 10.0 mi East 6.9 mph - N/A   Clear
10:52 PM 57.0 °F 48.0 °F 72% 30.05 in 10.0 mi East 6.9 mph - N/A   Clear
11:52 PM 59.0 °F 48.9 °F 69% 30.05 in 10.0 mi ESE 8.1 mph - N/A   Clear